Location: Madrid
(40.4167°N, 3.7036°W)
Time: 16:30:50
(UTC+00:00)

ISS - Pass Details

Date: 06 September 2024
Orbit: 414 x 424 km, 51.6° (Epoch: 15 September)

Event Time Altitude Azimuth Distance (km) Brightness Sun altitude
Exits shadow 03:24:32 24° 19° (NNE) 921 -1.6 -25.9°
Maximum altitude 03:24:41 24° 23° (NNE) 918 -1.5 -25.9°
Drops below altitude 10° 03:27:34 10° 81° (E) 1,518 -0.1 -25.4°
Sets 03:29:55 0° 95° (E) 2,383 0.8 -25.1°
